Dewpoint
67 67 68 68 68 67 68 68 67 67 67 67 66 66 67 66 64 59 58 58 57 57 54 56 58 59 58 60 60 60 61 62 62 61 64 63 61 65 66 66 67 65 63 62 62 63 62 62 61 61 61 63 64 64 63 62 62 62 62 61 61 60 60 60 60 59 59 59 59 58 58 58 57 58 57 57 57 56 56 57 57 58 57 56 56
67 66 66 67 68 67 66 68 68 67 68 67 68 68 67 67 65 61 56 58 57 56 56 56 55 58 59 57 58 59 61 61 60 59 60 65 62 65 67 67 67 67 66 63 61 62 63 62 62 62 60 60 63 65 64 63 63 63 62 62 61 61 60 60 60 59 59 59 59 58 58 58 58 57 57 57 57 57 56 57 57 57 57 56 56
67 66 66 66 67 67 67 67 68 68 68 67 68 68 68 67 66 64 60 58 57 55 55 55 56 55 58 56 57 60 60 61 59 59 59 64 62 62 64 67 67 66 66 67 64 60 60 61 62 61 61 60 61 66 65 64 63 63 63 62 62 61 61 61 60 60 59 58 59 59 58 58 57 57 57 56 56 57 56 56 56 56 55 56 56
67 66 66 68 67 67 66 67 67 67 66 67 67 68 68 67 67 65 66 64 59 56 55 55 55 52 54 54 56 58 59 59 58 59 59 61 62 62 62 63 67 66 66 66 66 63 61 61 61 61 61 60 60 61 65 62 61 61 64 63 63 62 61 61 60 60 60 60 59 59 58 58 58 57 57 57 57 56 56 56 56 56 56 56 56
67 66 65 66 66 67 66 66 67 68 67 66 66 67 68 67 66 64 67 67 62 59 55 55 56 56 54 54 57 54 55 56 58 60 59 60 63 64 63 61 63 67 67 65 67 65 64 61 61 62 61 61 60 61 59 60 59 59 65 64 64 63 62 62 61 60 61 60 59 59 58 58 58 58 57 57 57 57 56 56 56 56 55 55 55
65 66 65 66 66 66 66 67 67 68 67 66 67 66 67 67 65 64 66 65 65 59 57 57 57 55 57 54 56 57 57 54 56 60 61 66 68 66 66 64 62 63 63 66 66 67 67 64 63 63 62 61 60 60 61 60 60 59 61 65 64 64 63 62 62 61 61 60 60 60 60 59 59 59 57 57 57 56 56 56 56 55 55 55 55
64 65 66 65 65 65 65 67 67 67 67 67 67 66 67 67 66 65 65 65 65 61 56 57 57 57 59 59 55 55 57 57 58 60 59 66 67 65 65 64 65 64 62 63 67 67 67 67 65 65 64 63 62 61 60 60 61 61 60 66 65 64 64 63 63 62 62 61 60 60 60 60 59 59 59 58 57 57 56 56 56 55 55 55 55
64 64 66 65 64 64 67 66 66 66 66 66 66 65 66 66 66 65 63 64 64 62 62 59 59 58 59 59 60 60 63 63 64 65 62 62 62 65 65 66 65 65 65 65 64 65 67 67 67 66 65 64 64 63 62 62 61 61 62 62 66 65 64 64 63 63 63 62 62 61 61 60 60 59 59 59 57 58 57 57 57 56 56 55 55
65 65 66 66 65 63 67 65 66 66 65 66 66 66 65 64 65 64 64 64 64 60 61 60 61 63 63 63 64 63 65 64 65 65 66 66 65 67 64 65 65 64 66 65 66 64 66 67 66 67 67 66 65 64 64 65 65 64 62 62 64 65 65 64 64 64 63 63 62 62 61 60 60 60 60 59 58 58 58 58 57 57 56 56 56
65 64 65 65 64 65 66 65 65 65 66 66 66 66 65 65 64 64 65 64 64 60 61 59 60 61 63 64 64 65 65 65 65 65 65 64 64 63 63 65 66 64 66 65 65 66 65 66 66 67 67 66 66 66 65 64 65 65 65 65 65 65 65 66 64 64 64 63 63 63 63 62 61 61 60 60 59 59 58 58 58 58 57 57 57
65 65 66 65 66 67 65 64 65 65 64 64 62 64 64 64 63 64 64 64 64 64 62 61 60 60 60 64 64 64 64 65 64 64 63 64 63 63 61 63 64 65 65 64 65 65 65 64 64 64 64 66 66 66 66 66 65 65 65 64 64 65 65 65 65 65 64 63 63 64 64 64 63 62 61 61 59 59 58 58 58 58 58 57 57
65 66 66 66 67 65 65 64 66 65 64 63 63 64 63 63 63 64 63 64 63 64 64 60 62 62 62 62 62 64 64 65 64 64 63 64 64 64 63 66 63 64 64 65 64 64 64 65 66 64 64 65 66 66 66 66 66 66 65 65 65 65 65 65 65 65 65 65 64 64 65 64 64 63 62 62 61 60 59 58 58 58 57 58 57
64 65 66 66 65 66 65 64 64 63 64 64 63 63 64 65 65 64 63 62 63 63 62 66 62 62 63 62 62 62 63 64 63 62 62 63 63 64 64 64 64 64 66 66 65 64 65 65 66 65 66 65 65 66 66 65 64 63 63 63 64 65 65 65 65 65 65 65 65 65 66 65 65 64 63 63 62 61 61 59 58 58 58 57 57
63 65 66 66 65 65 65 64 65 64 65 65 65 65 64 64 64 63 64 63 63 63 64 61 60 58 59 58 60 61 61 61 61 60 60 61 63 63 62 62 64 64 65 64 64 63 64 65 65 65 65 65 65 65 65 63 62 62 63 64 65 65 64 65 65 65 65 65 65 65 66 65 66 65 64 64 63 62 62 61 60 59 59 58 57
62 63 64 64 66 65 64 65 64 64 65 65 65 64 63 64 63 63 62 62 61 63 64 63 60 60 61 59 57 56 59 61 60 58 58 59 60 58 57 59 55 63 63 65 64 65 64 63 65 65 65 63 64 64 62 58 60 63 64 64 64 65 65 65 65 65 65 65 65 65 65 66 66 65 65 64 64 64 63 62 61 60 60 59 58
57 57 60 63 65 65 64 63 64 64 63 63 63 62 63 63 63 63 62 61 58 59 63 63 60 61 57 57 57 57 54 57 59 60 58 57 57 55 63 55 54 54 57 56 57 58 58 59 60 60 60 60 58 62 60 58 61 62 61 61 62 63 64 65 65 65 65 65 65 65 66 66 66 65 65 65 65 64 63 63 62 63 61 60 59
58 57 56 59 60 61 63 64 64 65 63 64 63 62 63 63 63 63 62 62 58 60 62 64 64 63 60 56 55 55 54 56 58 57 62 62 59 58 56 54 52 59 56 54 56 57 56 56 58 58 58 58 61 63 61 60 61 61 58 57 57 59 60 62 63 65 64 63 63 65 65 65 65 66 65 65 65 65 64 64 64 63 62 61 60
57 56 55 58 59 58 60 58 62 63 62 62 61 60 61 61 62 63 62 63 62 59 59 62 64 63 63 63 61 56 56 56 57 55 60 63 58 55 52 52 52 52 52 52 51 50 52 54 56 57 58 59 59 57 56 56 56 55 55 54 55 55 55 57 61 62 64 65 64 64 64 64 65 65 66 65 65 65 65 64 64 63 63 63 62
58 57 58 59 60 59 59 58 57 59 59 61 61 61 59 58 61 60 61 62 62 60 59 59 62 62 63 63 62 60 60 56 56 55 53 55 53 52 49 48 49 49 48 48 50 52 52 52 53 54 56 57 57 56 57 55 54 54 55 55 54 53 53 53 56 60 63 62 62 62 63 64 64 65 65 65 65 65 65 64 64 64 64 63 63
56 56 57 57 58 58 59 59 56 55 54 54 58 59 61 60 61 62 63 62 63 61 60 61 58 59 62 61 62 62 60 60 58 59 54 50 48 50 52 53 53 52 51 50 50 51 53 52 51 51 52 51 52 53 54 54 54 52 53 53 53 52 51 51 52 53 59 64 64 64 64 64 64 64 64 65 65 64 65 65 65 64 64 64 64
56 55 57 56 56 57 58 58 58 56 53 55 60 61 61 62 61 62 62 62 63 63 62 59 60 61 60 59 61 60 61 59 61 60 59 49 47 49 50 52 53 52 51 51 49 50 49 48 47 47 51 51 50 49 49 52 52 51 51 52 52 51 50 49 49 50 52 60 63 64 64 63 64 63 63 64 64 64 65 65 64 64 63 64 64
56 56 56 55 56 57 57 58 58 56 55 58 60 62 63 63 63 63 64 63 63 61 61 60 61 62 60 62 59 61 57 59 60 59 59 51 48 47 50 50 49 49 50 49 49 48 47 49 49 46 48 49 49 48 48 48 48 48 50 50 50 50 49 48 46 48 51 54 58 61 62 62 62 63 62 63 63 63 63 64 64 64 64 64 64
56 57 57 55 56 57 58 58 58 58 55 55 56 55 58 61 63 63 64 63 62 63 61 60 62 63 61 61 62 58 59 57 58 58 59 51 48 49 49 47 46 47 47 46 46 42 42 46 46 47 48 49 48 47 47 47 47 48 50 49 49 49 49 47 46 46 48 52 53 57 58 58 59 59 59 60 61 61 62 63 63 63 63 62 63
56 55 57 56 56 57 58 58 57 57 56 56 55 55 55 57 59 61 61 62 62 62 60 61 60 60 61 61 61 61 60 60 57 59 59 56 50 48 44 44 42 38 39 45 40 39 38 37 39 43 45 45 47 49 47 45 45 50 47 49 48 48 48 48 47 46 45 47 50 52 55 56 56 55 55 56 56 57 57 57 56 57 57 57 59
54 55 56 55 54 56 57 57 57 58 57 55 55 55 55 55 57 59 61 60 61 62 62 61 60 60 60 60 57 56 54 57 61 54 53 52 49 45 42 40 39 39 37 39 37 35 35 35 35 36 38 42 42 45 45 46 47 52 48 48 48 47 47 47 47 46 45 45 46 48 50 52 53 54 53 53 52 53 53 52 50 50 50 51 54
54 54 53 53 56 56 58 57 57 57 56 55 56 55 55 52 56 57 57 59 62 61 62 62 61 57 56 54 54 53 52 53 54 53 51 50 46 45 42 41 40 35 35 33 34 30 31 30 32 34 36 39 43 44 47 46 48 51 50 46 47 47 47 46 46 45 45 43 43 45 46 47 49 50 50 50 49 49 49 49 48 48 49 49 50
54 55 54 55 56 56 56 56 55 56 55 53 53 55 55 52 53 55 55 55 56 57 57 56 55 53 54 52 50 47 45 42 43 47 46 48 47 45 42 39 39 38 37 34 36 32 29 29 28 31 37 45 43 44 43 42 46 51 51 47 44 47 46 46 46 45 45 44 43 43 44 45 45 46 46 47 48 48 47 48 48 47 48 49 48
53 53 54 56 56 55 54 54 53 54 53 53 52 53 53 51 50 52 51 49 54 54 54 54 53 51 48 46 44 40 42 39 40 41 39 43 45 43 42 39 37 35 37 35 35 34 34 30 28 29 33 38 39 41 42 42 42 48 52 49 48 47 45 45 46 45 45 45 44 43 43 44 44 45 47 46 47 48 46 47 47 48 47 48 47
52 54 54 54 53 52 51 51 52 52 54 54 54 53 52 51 51 51 51 51 51 49 50 50 50 49 48 47 44 44 43 46 43 43 43 44 41 41 40 40 40 36 37 37 38 34 32 30 26 28 30 34 40 38 35 29 40 46 44 46 48 46 45 46 44 44 45 43 43 43 43 43 44 45 46 46 46 46 46 46 46 46 47 47 46
52 53 54 53 52 50 49 48 49 49 50 50 50 51 51 48 49 49 48 49 48 48 48 48 48 48 47 47 48 48 50 50 48 49 47 46 43 43 41 42 41 40 39 38 40 39 35 33 29 25 29 31 34 39 35 29 43 37 36 38 46 46 45 45 44 44 43 44 43 43 43 43 43 44 44 45 45 46 45 46 46 46 46 46 45
51 52 51 49 50 49 49 47 47 46 47 48 48 48 47 47 46 45 46 47 46 48 49 50 50 51 51 50 50 49 51 51 50 49 49 46 44 42 42 45 46 47 43 41 41 43 41 37 33 30 29 30 30 37 34 31 34 40 41 41 37 47 46 45 45 45 44 43 43 43 44 44 44 45 44 43 44 44 44 44 45 45 45 45 44
49 49 47 47 47 47 46 45 45 44 44 45 46 45 46 45 43 42 45 45 43 44 45 48 46 50 50 48 47 47 47 47 49 50 47 47 48 43 45 46 46 47 46 44 42 42 41 37 35 33 33 37 32 33 36 30 29 42 36 39 46 48 43 45 45 45 45 44 43 44 43 44 43 43 43 42 42 43 43 43 44 45 44 44 44
49 47 46 45 44 46 45 43 42 44 45 46 47 47 45 45 43 43 42 40 40 43 46 47 45 47 46 46 47 48 47 47 46 46 44 43 46 46 46 44 44 47 46 46 43 42 42 42 39 33 37 37 30 33 33 39 40 40 37 39 40 42 40 42 42 45 44 45 43 43 43 43 42 42 42 41 41 42 43 43 43 43 43 43 43
48 45 43 45 45 45 43 43 43 42 43 44 45 46 46 47 47 47 45 43 43 44 47 45 47 45 47 45 44 47 46 44 45 39 40 41 41 42 42 44 42 44 46 44 42 42 43 42 39 36 37 40 34 32 40 42 42 40 36 36 36 37 34 39 39 42 44 45 43 42 43 43 43 42 42 41 41 41 42 42 42 41 42 42 42
48 46 45 45 44 43 44 45 43 43 43 44 47 46 47 47 46 48 47 46 45 46 46 45 43 45 46 46 46 48 47 47 47 45 44 41 38 40 43 42 43 44 42 42 43 43 43 41 42 37 39 40 43 33 34 38 39 38 36 37 36 35 35 39 39 36 43 44 43 44 43 42 43 42 41 42 41 41 41 41 41 41 41 42 42
48 48 46 44 43 44 45 44 44 44 44 47 47 44 42 43 46 47 46 47 46 46 44 41 41 44 45 45 46 47 47 46 44 43 43 44 45 44 45 46 46 44 46 46 45 44 43 41 41 32 38 41 40 35 33 35 37 38 37 37 37 37 37 36 39 39 40 45 44 44 44 44 43 42 42 41 41 41 41 41 41 41 41 42 43
51 50 47 45 44 43 46 43 43 44 45 45 45 45 48 47 44 46 45 45 47 46 45 44 48 44 46 47 44 45 47 47 47 43 44 46 42 46 45 43 43 46 47 46 45 44 43 43 43 43 43 39 36 40 37 36 37 38 37 39 38 38 41 41 40 39 43 44 44 42 42 42 42 42 42 42 41 41 40 40 41 41 42 43 43
50 52 50 47 44 42 42 41 42 43 43 44 44 45 46 48 48 48 47 47 47 47 48 47 45 46 47 48 47 47 47 49 47 48 47 47 45 46 45 44 41 45 48 47 47 46 44 41 44 43 45 42 42 43 38 39 40 39 39 40 40 40 40 42 41 39 38 36 42 42 44 41 42 42 42 42 40 39 39 40 41 42 43 43 42
48 49 49 48 47 46 43 42 42 43 43 44 45 45 45 46 47 48 49 49 48 49 48 48 46 48 49 48 50 49 48 49 50 50 50 49 48 48 47 48 43 45 47 46 42 43 44 43 43 43 42 44 44 42 37 36 36 37 40 41 42 40 42 41 41 38 38 38 39 40 39 39 40 40 41 41 40 41 41 41 41 41 42 42 41
52 49 47 48 49 48 46 44 44 45 45 44 44 45 45 46 48 49 50 51 50 50 51 49 49 49 49 49 50 50 50 49 52 52 51 50 50 49 48 48 47 47 47 47 47 45 44 43 40 40 40 41 40 43 38 38 39 37 38 41 41 42 42 42 40 38 38 37 38 37 39 39 40 40 39 39 41 41 41 41 41 41 43 42 41
53 51 50 49 49 48 46 47 46 47 48 47 46 48 47 47 50 51 51 50 51 51 51 51 52 52 51 52 51 51 52 55 51 50 51 49 53 49 49 49 48 47 47 47 47 45 43 42 40 42 39 38 39 40 40 40 40 40 42 42 41 41 39 39 38 38 35 35 36 36 36 39 36 36 33 35 40 42 41 41 41 43 43 41 40
51 51 50 50 48 49 47 47 48 51 51 51 55 49 49 51 53 53 54 54 53 53 54 53 55 54 54 54 55 56 53 50 49 46 45 45 46 50 51 50 48 47 47 47 47 46 45 42 41 39 38 39 39 43 42 41 41 42 40 42 40 39 39 38 39 40 37 36 37 38 36 36 36 34 32 34 35 45 41 42 41 43 41 40 40
54 53 53 52 52 51 49 50 51 54 55 54 47 47 48 50 54 55 55 56 55 55 55 55 55 56 58 58 58 58 56 52 53 45 44 43 41 39 40 41 46 55 49 47 47 46 45 45 42 40 39 40 42 42 42 38 41 42 41 41 40 39 38 37 36 38 39 38 37 36 36 37 36 32 31 33 35 38 37 42 40 42 41 40 39
58 58 58 54 53 54 54 53 54 57 58 50 44 45 46 47 50 58 57 56 56 56 56 56 56 57 58 57 56 57 57 56 54 52 47 42 40 37 37 37 36 36 38 45 45 46 46 43 43 45 44 42 40 41 42 45 44 43 42 41 40 38 38 37 36 35 36 39 36 35 35 36 37 37 36 35 35 38 35 40 38 39 39 38 39
59 58 58 59 58 59 58 56 56 57 58 45 44 44 44 44 45 51 54 56 56 56 55 55 56 58 58 57 57 58 57 55 55 54 51 47 39 38 38 37 37 35 33 33 35 46 45 45 45 44 42 44 43 43 47 45 44 42 41 38 39 38 38 36 34 33 36 38 37 36 35 37 38 37 36 36 35 37 36 37 40 39 39 40 40
58 57 59 58 58 58 57 56 56 58 57 46 43 44 43 43 43 45 54 55 55 54 54 55 58 58 59 59 58 57 58 57 56 55 53 48 44 41 42 42 41 42 34 33 33 34 37 43 44 43 44 46 44 45 45 44 43 41 40 39 40 38 37 36 38 37 39 39 39 38 37 37 38 37 35 36 36 37 37 37 40 40 40 40 40
57 57 57 57 58 57 58 57 58 57 58 44 42 43 43 42 42 41 54 56 56 57 58 58 58 58 58 58 58 57 59 57 54 54 52 49 47 46 44 44 43 40 41 40 43 45 44 45 44 44 45 46 47 45 45 44 42 41 39 39 38 38 38 38 38 39 39 38 38 35 32 32 35 34 35 35 36 35 36 36 37 40 40 40 40
57 57 57 57 57 56 56 57 57 56 57 44 43 43 42 41 40 54 52 56 56 56 55 56 56 56 56 57 56 56 56 55 48 45 47 49 48 46 46 45 43 43 43 36 36 37 43 45 45 45 44 43 39 42 40 37 36 36 35 34 34 34 32 31 30 32 30 32 34 31 33 32 33 33 33 34 34 34 34 36 36 38 40 41 40
55 56 57 56 57 56 55 57 56 57 57 47 42 42 41 40 43 53 52 55 55 55 55 52 52 54 53 53 54 51 53 52 43 40 41 43 48 47 46 45 45 46 43 40 37 36 35 35 35 35 35 34 34 34 33 34 37 36 32 31 30 31 30 28 29 29 30 32 32 33 32 30 34 34 34 34 34 33 33 33 35 38 41 40 39
53 53 53 53 55 55 56 56 56 56 55 49 41 41 41 40 48 52 52 51 54 53 53 51 52 52 49 45 49 52 53 48 38 39 39 46 47 46 46 47 46 44 43 41 40 41 35 34 34 33 33 33 33 34 35 35 34 34 35 32 34 32 32 32 30 31 32 33 32 35 34 32 33 33 31 31 32 33 33 33 34 38 39 39 38
50 51 52 52 54 55 56 57 55 56 55 48 40 40 40 40 47 54 51 50 50 50 50 50 50 49 46 43 42 47 47 43 36 36 36 41 48 47 45 45 43 43 45 44 44 43 42 42 40 41 40 37 39 37 38 35 35 36 37 38 37 36 34 33 33 33 31 32 33 36 32 31 31 31 31 30 29 30 32 32 33 33 33 33 33